User: anonymous   Login
Location: Carbonear
(47.7333°N, 53.2500°W)
Time: 09:58:35
(UTC+00:00)
Language:

LO-87 - Orbit

View from above orbital plane
View from above orbital plane
View from above satellite
View from above satellite

Ground track
Ground track

The orbit data is extracted from the following two-line orbital elements,

1 41557U 16033B   22330.85570214  .00015752  00000-0  40014-3 0  9999
2 41557  97.3908  69.3300 0010399 150.8048 358.2256 15.39673064362320
Epoch (UTC): 26 November 2022 20:32:12
Eccentricity: 0.0010399
inclination: 97.3908°
perigee height: 440 km
apogee height: 454 km
right ascension of ascending node: 69.3300°
argument of perigee: 150.8048°
revolutions per day: 15.39673064
mean anomaly at epoch: 358.2256°
orbit number at epoch: 36232

The dashed part of the orbit path shows where the satellite is in the earth's shadow,  

DLR